Date String (YYYY-MM-DD hh:mm:ss) UTC,Instrument flags,Ambient pressure (hPa),Sample flow (lpm),Bypass flow (lpm),Sample temperature (°C),Ambient temperature (°C),ASC tube jacket temperature (°C),LED temperature (°C),Box temperature (°C),Sample RH (%),Span deviation,Mass concentration (μg/m³),Mass concentration (μg/m³),Mass concentration (μg/m³)
DateTimeUTC,F1_M11,P_M11,Q1_M11,Q2_M11,T1_M11,T2_M11,T3_M11,T4_M11,T5_M11,U1_M11,ZSPAN_M11,X2_M11,X0_M11,X1_M11
2022-07-19 05:00:00,,0826.6,5.00,0.00,29.4,28.4,00.0,38.1,31.4,22.2,0000.0,0003.42,0007.22,0002.86
2022-07-19 05:01:00,,0826.5,5.00,0.00,29.5,28.4,00.0,38.1,31.4,22.2,0000.0,0003.47,0007.33,0002.88
2022-07-19 05:02:00,,0826.5,5.00,0.00,29.5,28.0,00.0,38.1,31.4,22.2,0000.0,0003.48,0007.01,0002.90
2022-07-19 05:03:00,,0826.4,5.01,0.00,29.4,27.2,00.0,38.0,31.3,22.2,0000.0,0003.46,0006.45,0002.90
2022-07-19 05:04:00,,0826.5,4.99,0.00,29.4,26.9,00.0,38.0,31.2,22.3,0000.0,0003.42,0005.93,0002.88
2022-07-19 05:05:00,,0826.5,5.01,0.00,29.3,27.0,00.0,38.0,31.1,22.4,0000.0,0003.43,0005.97,0002.89
2022-07-19 05:06:00,,0826.5,5.00,0.00,29.3,27.1,00.0,38.0,31.1,22.5,0000.0,0003.44,0005.74,0002.89
2022-07-19 05:07:00,,0826.5,4.99,0.00,29.3,27.3,00.0,38.0,31.1,22.6,0000.0,0003.48,0005.84,0002.88
2022-07-19 05:08:00,,0826.5,4.99,0.00,29.3,27.5,00.0,38.0,31.1,22.6,0000.0,0003.45,0005.71,0002.88
2022-07-19 05:09:00,,0826.5,5.02,0.00,29.3,27.7,00.0,38.0,31.2,22.6,0000.0,0003.44,0005.68,0002.88
2022-07-19 05:10:00,,0826.5,5.01,0.00,29.3,27.8,00.0,38.0,31.2,22.6,0000.0,0003.45,0005.64,0002.88
2022-07-19 05:11:00,,0826.5,4.99,0.00,29.3,28.0,00.0,38.0,31.3,22.6,0000.0,0003.47,0005.74,0002.89
2022-07-19 05:12:00,,0826.5,5.01,0.00,29.4,28.1,00.0,38.0,31.3,22.6,0000.0,0003.47,0005.71,0002.90
2022-07-19 05:13:00,,0826.5,4.99,0.00,29.4,28.3,00.0,38.1,31.4,22.5,0000.0,0003.48,0005.92,0002.90
2022-07-19 05:14:00,,0826.5,5.01,0.00,29.4,28.4,00.0,38.1,31.4,22.5,0000.0,0003.48,0005.85,0002.90
2022-07-19 05:15:00,,0826.5,4.99,0.00,29.5,28.2,00.0,38.1,31.5,22.4,0000.0,0003.51,0005.74,0002.93
2022-07-19 05:16:00,,0826.5,5.00,0.00,29.5,27.4,00.0,38.0,31.4,22.4,0000.0,0003.50,0005.71,0002.93
2022-07-19 05:17:00,,0826.5,5.01,0.00,29.4,26.9,00.0,38.0,31.2,22.5,0000.0,0003.52,0005.83,0002.94
2022-07-19 05:18:00,,0826.5,5.00,0.00,29.4,26.9,00.0,38.0,31.1,22.6,0000.0,0003.49,0005.65,0002.96
2022-07-19 05:19:00,,0826.5,5.00,0.00,29.3,27.0,00.0,38.0,31.1,22.8,0000.0,0003.49,0005.57,0002.98
2022-07-19 05:20:00,,0826.5,5.00,0.00,29.3,27.2,00.0,38.0,31.1,22.8,0000.0,0003.48,0006.11,0002.99
2022-07-19 05:21:00,,0826.5,5.01,0.00,29.3,27.4,00.0,38.0,31.1,22.8,0000.0,0003.48,0006.06,0003.00
2022-07-19 05:22:00,,0826.5,5.00,0.00,29.3,27.6,00.0,38.0,31.1,22.8,0000.0,0003.52,0006.23,0003.00
2022-07-19 05:23:00,,0826.5,5.00,0.00,29.3,27.8,00.0,38.0,31.2,22.8,0000.0,0003.51,0006.17,0003.00
2022-07-19 05:24:00,,0826.5,4.99,0.00,29.3,27.9,00.0,38.0,31.2,22.7,0000.0,0003.49,0005.95,0002.99
2022-07-19 05:25:00,,0826.5,5.01,0.00,29.3,28.1,00.0,38.0,31.3,22.7,0000.0,0003.50,0005.91,0002.99
2022-07-19 05:26:00,,0826.5,4.99,0.00,29.4,28.2,00.0,38.1,31.4,22.7,0000.0,0003.51,0005.93,0002.99
2022-07-19 05:27:00,,0826.5,5.01,0.00,29.4,28.3,00.0,38.1,31.4,22.6,0000.0,0003.51,0005.94,0002.98
2022-07-19 05:28:00,,0826.5,5.00,0.00,29.5,28.4,00.0,38.1,31.5,22.6,0000.0,0003.50,0005.89,0002.99
2022-07-19 05:29:00,,0826.5,5.00,0.00,29.5,28.4,00.0,38.1,31.5,22.5,0000.0,0003.49,0005.95,0002.99
2022-07-19 05:30:00,,0826.5,5.02,0.00,29.5,27.8,00.0,38.1,31.4,22.6,0000.0,0003.49,0006.34,0002.98
2022-07-19 05:31:00,,0826.5,4.99,0.00,29.5,27.1,00.0,38.0,31.3,22.6,0000.0,0003.49,0006.07,0002.98
2022-07-19 05:32:00,,0826.5,4.99,0.00,29.4,26.9,00.0,38.0,31.2,22.7,0000.0,0003.49,0006.03,0002.98
2022-07-19 05:33:00,,0826.5,5.02,0.00,29.3,27.0,00.0,38.0,31.1,22.7,0000.0,0003.46,0005.90,0002.96
2022-07-19 05:34:00,,0826.5,4.99,0.00,29.3,27.1,00.0,38.0,31.1,22.8,0000.0,0003.45,0005.84,0002.96
2022-07-19 05:35:00,,0826.5,4.99,0.00,29.3,27.3,00.0,38.0,31.1,22.8,0000.0,0003.43,0005.81,0002.96
2022-07-19 05:36:00,,0826.5,5.00,0.00,29.3,27.5,00.0,38.0,31.1,22.8,0000.0,0003.42,0005.94,0002.96
2022-07-19 05:37:00,,0826.6,5.00,0.00,29.3,27.7,00.0,38.0,31.2,22.8,0000.0,0003.43,0006.13,0002.95
2022-07-19 05:38:00,,0826.6,5.01,0.00,29.3,27.9,00.0,38.0,31.3,22.8,0000.0,0003.45,0006.86,0002.95
2022-07-19 05:39:00,,0826.6,4.99,0.00,29.4,28.0,00.0,38.1,31.3,22.8,0000.0,0003.47,0007.91,0002.93
2022-07-19 05:40:00,,0826.5,5.01,0.00,29.4,28.2,00.0,38.1,31.4,22.8,0000.0,0003.49,0008.67,0002.93
2022-07-19 05:41:00,,0826.5,5.00,0.00,29.4,28.3,00.0,38.1,31.4,22.8,0000.0,0003.52,0008.58,0002.94
2022-07-19 05:42:00,,0826.5,4.99,0.00,29.5,28.4,00.0,38.1,31.4,22.8,0000.0,0003.53,0008.56,0002.94
2022-07-19 05:43:00,,0826.6,5.01,0.00,29.5,28.5,00.0,38.1,31.5,22.8,0000.0,0003.52,0008.51,0002.95
2022-07-19 05:44:00,,0826.7,5.00,0.00,29.5,28.1,00.0,38.1,31.5,22.7,0000.0,0003.51,0008.45,0002.98
2022-07-19 05:45:00,,0826.6,5.01,0.00,29.5,27.3,00.0,38.1,31.4,22.7,0000.0,0003.53,0008.47,0002.99
2022-07-19 05:46:00,,0826.6,4.99,0.00,29.5,27.0,00.0,38.0,31.3,22.8,0000.0,0003.57,0008.56,0003.00
2022-07-19 05:47:00,,0826.6,5.00,0.00,29.4,27.0,00.0,38.0,31.2,22.9,0000.0,0003.58,0008.49,0003.01
2022-07-19 05:48:00,,0826.6,5.01,0.00,29.3,27.1,00.0,38.0,31.1,23.0,0000.0,0003.54,0008.36,0003.01
2022-07-19 05:49:00,,0826.7,5.00,0.00,29.3,27.3,00.0,38.0,31.1,23.1,0000.0,0003.55,0007.99,0003.03
2022-07-19 05:50:00,,0826.7,5.01,0.00,29.3,27.5,00.0,38.0,31.2,23.1,0000.0,0003.53,0007.32,0003.03
2022-07-19 05:51:00,,0826.7,4.99,0.00,29.3,27.7,00.0,38.1,31.2,23.2,0000.0,0003.53,0005.80,0003.04
2022-07-19 05:52:00,,0826.7,5.00,0.00,29.3,27.9,00.0,38.1,31.2,23.2,0000.0,0003.53,0005.76,0003.05
2022-07-19 05:53:00,,0826.7,5.01,0.00,29.4,28.0,00.0,38.1,31.3,23.1,0000.0,0003.52,0005.63,0003.05
2022-07-19 05:54:00,,0826.7,5.00,0.00,29.4,28.2,00.0,38.1,31.3,23.2,0000.0,0003.53,0005.71,0003.05
2022-07-19 05:55:00,,0826.6,5.00,0.00,29.4,28.3,00.0,38.1,31.4,23.2,0000.0,0003.54,0005.87,0003.03
2022-07-19 05:56:00,,0826.7,5.00,0.00,29.5,28.4,00.0,38.1,31.5,23.2,0000.0,0003.54,0006.59,0003.03
2022-07-19 05:57:00,,0826.6,4.99,0.00,29.5,28.5,00.0,38.2,31.5,23.0,0000.0,0003.54,0006.80,0003.03
2022-07-19 05:58:00,,0826.7,5.00,0.00,29.5,28.4,00.0,38.2,31.6,23.0,0000.0,0003.53,0006.78,0003.03
2022-07-19 05:59:00,,0826.7,5.01,0.00,29.5,27.7,00.0,38.1,31.5,23.0,0000.0,0003.60,0007.17,0003.05
